User: anonymous   Login
Location: Schommer Observatory
(40.5200°N, 74.4500°W)
Time: 06:15:35
(UTC-04:00)
Language:

Envisat - Orbit

View from above orbital plane
View from above orbital plane
View from above satellite
View from above satellite

Ground track
Ground track

The orbit data is extracted from the following two-line orbital elements,

1 27386U 02009A   18143.62288672 -.00000002 +00000-0 +12879-4 0  9999
2 27386 098.1863 178.8387 0001279 089.2090 073.5897 14.37922450849920
Epoch (UTC): 23 May 2018 14:56:57
Eccentricity: 0.0001279
inclination: 98.1863°
perigee height: 764 km
apogee height: 766 km
right ascension of ascending node: 178.8387°
argument of perigee: 89.2090°
revolutions per day: 14.37922450
mean anomaly at epoch: 73.5897°
orbit number at epoch: 84992

The dashed part of the orbit path shows where the satellite is in the earth's shadow,  

DLR